DW5623 Weather Reports


time (UTC)temp
F
wind
direction
speed
knots
gust
knots
rain 1hr
in
rain 24hr
in
rain mn
in
humidity
%
barometer
mb
20260506061544 53 273 0.0 1.7 0.00 0.07 0.00 90 1006.0
20260506044549 52 0 0.0 0.9 0.00 0.07 0.00 87 1006.0
20260506043047 52 0 0.0 0.9 0.00 0.07 0.00 87 1006.1
20260506041543 52 148 0.0 1.7 0.00 0.07 0.00 87 1006.1
20260506040044 52 0 0.0 1.7 0.00 0.07 0.00 87 1006.3
20260506034557 52 0 0.0 0.9 0.00 0.07 0.00 87 1006.6
20260506033048 53 0 0.0 0.9 0.00 0.07 0.00 87 1006.7
20260506031545 53 0 0.0 0.9 0.00 0.07 0.00 87 1006.8
20260506030045 53 0 0.0 1.7 0.00 0.07 0.00 87 1006.9
20260506024557 53 198 0.0 1.7 0.00 0.07 0.00 86 1007.0
20260506023042 54 78 0.0 2.6 0.00 0.07 0.00 87 1007.2
20260506021545 54 351 0.0 1.7 0.00 0.07 0.00 87 1007.3
20260506020043 54 0 0.0 0.9 0.00 0.07 0.00 87 1007.4
20260506014546 54 173 0.0 2.6 0.00 0.07 0.00 86 1007.5
20260506013059 54 0 0.0 0.0 0.00 0.07 0.00 86 1007.7
20260506011610 54 324 0.0 0.9 0.00 0.07 0.00 86 1007.7
20260506010044 54 0 0.0 1.7 0.00 0.07 0.00 86 1007.8
20260506004542 54 0 0.0 1.7 0.00 0.07 0.00 85 1007.9
20260506003041 54 98 0.0 2.6 0.00 0.07 0.00 85 1008.1
20260506001548 54 128 0.0 6.1 0.00 0.07 0.00 85 1008.3
20260506000050 54 138 0.9 3.5 0.00 0.07 0.00 85 1008.4
20260505234544 54 0 0.0 1.7 0.00 0.07 0.00 85 1008.4
20260505233041 55 0 0.0 1.7 0.00 0.07 0.00 84 1008.5
20260505231545 55 0 0.9 2.6 0.00 0.07 0.00 84 1008.6
20260505230057 55 269 0.0 3.5 0.00 0.07 0.00 83 1008.7
20260505224546 55 134 0.9 4.3 0.00 0.07 0.00 82 1008.7
20260505223102 55 162 0.0 7.0 0.00 0.07 0.00 82 1008.6
20260505221542 55 0 0.0 4.3 0.01 0.07 0.00 82 1008.8
20260505220048 55 180 2.6 7.0 0.00 0.06 0.00 81 1008.8
20260505214544 55 215 2.6 7.8 0.01 0.06 0.06 82 1009.0
20260505213054 56 0 0.0 2.6 0.01 0.06 0.06 81 1009.2
20260505211550 56 160 0.0 2.6 0.00 0.05 0.05 80 1009.3
20260505210041 57 150 0.0 2.6 0.00 0.05 0.05 78 1009.3
20260505204547 57 156 0.9 3.5 0.00 0.04 0.04 76 1009.3
20260505203051 58 204 0.0 3.5 0.00 0.04 0.04 75 1009.2
20260505201546 58 182 1.7 7.8 0.00 0.04 0.04 72 1009.2
20260505200042 58 202 3.5 6.1 0.00 0.04 0.04 71 1008.9
20260505194550 58 194 1.7 7.0 0.00 0.04 0.04 73 1008.8
20260505193041 57 148 4.3 12.2 0.00 0.04 0.04 74 1008.6
20260505191541 57 194 3.5 8.7 0.00 0.04 0.04 77 1008.7
20260505190047 57 181 2.6 9.6 0.00 0.04 0.04 78 1008.5
20260505184544 57 188 2.6 9.6 0.00 0.04 0.04 78 1008.2
20260505183049 57 179 1.7 9.6 0.00 0.04 0.04 80 1008.5
20260505181541 57 184 2.6 7.8 0.00 0.04 0.04 82 1008.6
20260505180042 57 200 2.6 7.8 0.00 0.04 0.04 82 1008.6
20260505174548 57 160 2.6 7.8 0.00 0.04 0.04 82 1008.7
20260505173048 57 0 0.0 7.0 0.01 0.04 0.04 82 1008.6
20260505171541 57 137 0.9 3.5 0.01 0.04 0.04 82 1008.4
20260505170049 57 0 0.0 1.7 0.01 0.04 0.04 81 1008.5
20260505164558 58 163 1.7 7.8 0.00 0.03 0.03 78 1008.1
20260505163055 59 188 1.7 7.0 0.00 0.03 0.03 75 1008.4
20260505161544 60 261 1.7 7.0 0.00 0.03 0.03 71 1008.2
20260505153105 64 258 1.7 7.8 0.00 0.03 0.03 66 1007.5
20260505151554 65 259 3.5 7.0 0.00 0.03 0.03 63 1007.4
20260505130104 64 254 0.9 5.2 0.00 0.03 0.03 68 1007.5
20260505124600 62 308 0.9 3.5 0.00 0.03 0.03 73 1007.4
20260505123106 62 14 0.9 3.5 0.00 0.03 0.03 75 1007.7
20260505121543 62 273 0.9 5.2 0.00 0.03 0.03 75 1007.7
20260505120051 61 0 0.9 3.5 0.00 0.03 0.03 74 1007.9
20260505114549 61 134 0.9 2.6 0.00 0.03 0.03 77 1008.0
20260505113046 60 288 0.9 3.5 0.00 0.03 0.03 80 1008.0
20260505111552 58 277 0.0 2.6 0.00 0.02 0.02 83 1008.1
20260505101546 56 271 0.0 1.7 0.00 0.02 0.02 84 1008.4
20260505100050 56 0 0.0 2.6 0.01 0.02 0.02 84 1008.4
20260505094543 56 165 0.0 2.6 0.01 0.02 0.02 84 1008.5
20260505093043 56 0 0.0 2.6 0.02 0.02 0.02 83 1008.5
20260505091556 56 159 0.0 1.7 0.02 0.02 0.02 83 1008.6
20260505090056 56 0 0.0 0.9 0.00 0.00 0.00 82 1008.5
20260505084549 56 0 0.0 1.7 0.00 0.00 0.00 81 1008.7
20260505083048 56 0 0.0 2.6 0.00 0.00 0.00 80 1008.7
20260505081558 56 32 0.0 2.6 0.00 0.00 0.00 80 1008.8
20260505080046 56 12 0.0 3.5 0.00 0.00 0.00 80 1008.8
20260505074602 56 0 0.0 1.7 0.00 0.00 0.00 80 1009.0
20260505073052 56 48 1.7 3.5 0.00 0.00 0.00 79 1009.2
20260505071545 56 41 0.9 2.6 0.00 0.00 0.00 80 1009.4